Alice Bagarello

G.S. FIAMME ORO PADOVA
27-08-2000


Informazioni sul tesseramento aggiornate al 2020


Condividi con
Seguici su:


50 metri

Anno Data Tipo Cr. Cat. Piazz. Prestaz. Vento Città  
201310/03IERF3 se- 2 7.94Padova
201102/06PMEF2 se- 2 8.1Voltabarozzo
201112/02IMEF1 se- 4 8.2Padova
 

60 piani

Anno Data Tipo Cr. Cat. Piazz. Prestaz. Vento Città  
201229/06PERF1 se- 1 9.49Abano Terme
201305/06PMRF5 se- 2 9.3Padova
201326/01IMRF2 se- 6 9.4Padova
 

80 piani

Anno Data Tipo Cr. Cat. Piazz. Prestaz. Vento Città  
201405/04PMCF3 se- 4 12.2Curtarolo
 

200 metri

Anno Data Tipo Cr. Cat. Piazz. Prestaz. Vento Città  
201919/01IEJF2 se- 3 28.70Padova
 

300 piani

Anno Data Tipo Cr. Cat. Piazz. Prestaz. Vento Città  
201523/05PMCF2 se- 1 44.6Padova
201503/05PMCF1 se- 1 45.1Padova
201429/03PMCF1 se- 4 46.5Padova
 

600 metri

Anno Data Tipo Cr. Cat. Piazz. Prestaz. Vento Città  
201514/07PECF7 se- 1 1:40.97Trento
201508/02IECF3 se- 1 1:41.96Padova
201521/01IECF1 se- 3 1:42.25Padova
201321/09PMRF2 se- 3 1:45.6Padova
201307/09PERF7 se- 1 1:46.93Majano
201331/08PMRF1 se- 1 1:47.2Borgoricco
201305/10PMRF1 se- 3 1:49.4Bovolone
201222/09PMRF1 se- 2 1:50.5Padova
201229/06PERF4 se- 2 1:51.37Abano Terme
201101/05PMEF1 se- 1 1:58.4Padova
201208/09PERF15 se- 1 2:00.45Majano
201102/06PMEF1 se- 1 2:00.8Voltabarozzo
 

800 metri

Anno Data Tipo Cr. Cat. Piazz. Prestaz. Vento Città  
201819/06PEJF2 se- 1 2:12.46Rubiera
201908/06PEJF4 fi- 1 2:12.61Rieti
201810/07PEJF2 se- 1 2:13.26Gavardo
201805/07PEJF3 se- 1 2:13.38Nembro
201909/07PEJF3 se- 1 2:13.49Trento
201902/07PEJF1 se- 1 2:13.68Gavardo
201907/06PEJF3 ba- 1 2:14.21Rieti
201806/05PEJF4 se- 1 2:14.39Caorle
201919/01IEJF4 se- 1 2:14.48Padova
201815/06PEJF1 se- 1 2:14.77Conegliano
201923/07PEJF3 se- 1 2:15.09Trento
201903/02IEJF5 se- 3 2:15.11Ancona
201717/06PEAF4 fi- 1 2:15.56Rieti
201912/05PEJF4 se- 1 2:15.65San Biagio Di Callalta
201825/04PEJF1 se- 1 2:15.70Piombino Dese
201924/08PEJF1 se- 1 2:16.00Cles
201804/02IEJF5 se- 2 2:16.35Ancona
201716/06PEAF2 ba- 3 2:16.46Rieti
201801/06PEJF3 ba- 3 2:16.48Agropoli
201731/05PEAF5 se- 1 2:16.60Treviso
201813/01IEJF4 se- 1 2:17.12Padova
201801/09PEJF3 su- 1 2:19.00Modena
201824/01IEJF5 se- 1 2:19.36Padova
201721/01IEAF1 se- 4 2:19.97Padova
201717/09PEAF1 se- 1 2:20.93Jesolo
201701/10PEAF2 su- 1 2:22.29Chiari
201630/01IEAF1 se- 4 2:22.80Padova
201616/01IEAF2 se- 6 2:23.53Padova
201624/01IEAF4 se- 3 2:27.21Padova
 

1000 metri

Anno Data Tipo Cr. Cat. Piazz. Prestaz. Vento Città  
201712/02IEAF1 se- 2 3:02.36Ancona
201730/05PEAF2 se- 1 3:04.83Vicenza
201521/07PECF6 se- 1 3:06.13Trento
201614/02IEAF4 se- 1 3:06.34Ancona
201526/09PMCF1 se- 1 3:06.7Marostica
201516/05PMCF1 su- 1 3:07.6Abano Terme
201530/05PECF2 se- 1 3:08.85Belluno
201427/09PECF4 se- 1 3:10.18Caprino Veronese
201427/06PECF2 se- 1 3:10.92Abano Terme
201422/07PECF8 se- 1 3:11.43Trento
201407/06PECF5 se- 1 3:11.81Belluno
201417/05PMCF1 se- 1 3:13.5Abano Terme
201505/09PECF7 su- 1 3:13.88Majano
201315/09PERF3 se- 1 3:15.16Marostica
201528/08PMCF1 se- 1 3:15.2Borgoricco
201405/10PMCF1 se- 1 3:15.7Padova
201429/08PMCF1 se- 1 3:16.5Borgoricco
201326/05PMRF3 se- 1 3:17.7Vicenza
201406/09PECF11 se- 2 3:17.75Majano
201712/05PMAF2 se- 1 3:17.9Padova
201305/07PERF4 se- 1 3:18.13Abano Terme
201405/04PMCF1 se- 1 3:19.4Curtarolo
201230/09PERF3 se- 2 3:22.17Borgoricco
201328/06PMRF1 se- 1 3:22.2Borgoricco
201309/06PMRF5 su- 1 3:23.7Borgoricco
201210/06PMRF9 su- 1 3:24.4Belluno
201318/05PMRF1 se- 1 3:25.1Galliera Veneta
201329/05PMRF1 se- 1 3:25.6Arcella
201313/04PMRF1 se- 2 3:25.7Padova
201231/03PMRF1 se- 1 3:28.3Padova
201214/04PMRF1 se- 1 3:28.7Padova
201215/09PMRF1 se- 1 3:29.9Padova
 

1500 metri

Anno Data Tipo Cr. Cat. Piazz. Prestaz. Vento Città  
201902/03IEJF4 su- 1 4:30.22Ancona
201916/02IEJF7 su- 1 4:33.05Ancona
201803/06PEJF5 se- 2 4:33.83Agropoli
201927/01IEJF7 se- 1 4:34.96Padova
201926/04PEJF6 se- 1 4:35.62Milano
201807/07PEJF3 se- 1 4:37.11Arzignano
201919/07PEJF8 su- 1 4:37.30Vicenza
201916/07PEJF7 se- 1 4:38.53Trento
201826/05PEJF3 se- 1 4:38.66Bussolengo
201902/02IEJF8 se- 2 4:39.63Ancona
201911/05PEJF99 se- 1 4:39.67San Biagio Di Callalta
201805/05PEJF5 se- 1 4:40.97Caorle
201913/01IEJF3 se- 1 4:41.25Padova
201922/06PEJF1 su- 1 4:43.44Feltre
201909/06PEJF7 se- 2 4:45.69Rieti
201711/07PEAF11 se- 2 4:48.22Trento
201708/07PEAF2 su- 1 4:48.42Vedelago
201821/01IEJF1 se- 2 4:52.44Padova
201730/09PEAF2 su- 1 4:55.85Chiari
201716/09PEAF2 su- 1 5:00.88Jesolo
 

2000 metri

Anno Data Tipo Cr. Cat. Piazz. Prestaz. Vento Città  
201528/07PECF6 se- 1 7:02.87Trento
201514/06PMCF1 se- 1 7:10.2Borgoricco
201429/07PECF13 se- 1 7:17.48Trento
201420/09PMCF1 se- 1 7:25.5Abano Terme
 

1200 siepi H 76 S.R.

Anno Data Tipo Cr. Cat. Piazz. Prestaz. Vento Città  
201519/09PMCF1 se- 1 3:57.0Padova
201527/09PECF1 su- 1 4:00.29Marostica
201520/06PECF2 su- 1 4:03.25Feltre
201517/07PECF2 su- 1 4:03.31Agordo
201531/05PECF2 se- 1 4:04.07Belluno
201511/10PECF5 se- 2 4:05.43Sulmona
201507/06PECF7 su- 1 4:05.72Fidenza
201517/05PMCF1 su- 1 4:08.2Abano Terme
201428/09PECF4 su- 1 4:11.83Caprino Veronese
201408/06PECF4 se- 1 4:11.89Belluno
201424/05PMCF1 se- 1 4:13.6Padova
201418/05PMCF1 se- 1 4:19.5Abano Terme
 

60 Hs H 60

Anno Data Tipo Cr. Cat. Piazz. Prestaz. Vento Città  
201312/05PMRF3 se- 1 10.7Padova
201321/09PMRF5 se- 1 10.8Padova
201205/05PMRF2 se- 1 11.3Padova
201305/10PMRF6 se- 4 11.3Bovolone
201306/04PMRF1 se- 2 11.4Curtarolo
201202/06PMRF2 se- 1 11.5Padova
201222/09PMRF3 se- 4 11.5Padova
201215/09PMRF5 se- 2 11.8Padova
201303/02IMRF1 se- 5 11.8Padova
201231/03PMRF3 se- 2 11.9Padova
 

Salto in alto/HJ

Anno Data Tipo Cr. Cat. Piazz. Prestaz. Vento Città  
201326/01IRF7 se- 1 1.20Padova
201331/08PRF8 se- 1 1.20Borgoricco
201310/03IRF10 se- 1 1.18Padova
201216/06PRF7 su- 1 1.18San Martino Di Lupari
201318/05PRF11 se- 1 1.10Galliera Veneta
 

Salto in lungo/LJ

Anno Data Tipo Cr. Cat. Piazz. Prestaz. Vento Città  
201303/02IRF4 se- 1 3.91Padova
201429/03PCF11 se- 1 3.88Padova
201305/10PRF17 se- 1 3.84Bovolone
201329/05PRF6 se- 1 3.78Arcella
201313/04PRF11 se- 1 3.74Padova
201321/09PRF18 su- 1 3.57Padova
201222/09PRF13 su- 1 3.45Padova
201205/05PRF24 se- 1 3.38Padova
 

Peso/SP Kg 2.000

Anno Data Tipo Cr. Cat. Piazz. Prestaz. Vento Città  
201216/06PRF9 su- 1 7.16San Martino Di Lupari
201312/05PRF13 se- 1 6.91Padova
201214/04PRF10 se- 1 6.86Padova
 

Vortex

Anno Data Tipo Cr. Cat. Piazz. Prestaz. Vento Città  
201305/10PRF11 se- 1 30.45Bovolone
201321/09PRF14 su- 1 28.30Padova
201305/06PRF6 se- 1 25.20Padova
201222/09PRF11 su- 1 24.93Padova
201306/04PRF24 se- 1 20.99Curtarolo
201128/05PEF4 se- 1 20.80Padova
201202/06PRF19 se- 1 20.68Padova
 

TRIATHLON

Anno Data Tipo Cr. Cat. Piazz. Prestaz. Vento Città  
201216/06PRF9 su- 1 1544San Martino Di Lupari
 

TETRATHLON

Anno Data Tipo Cr. Cat. Piazz. Prestaz. Vento Città  
201321/09PRF2 su- 1 2652Padova
201305/10PRF8 se- 1 2576Bovolone
201222/09PRF4 su- 1 2314Padova
 

Attenzione: le schede-atleti sono composte automaticamente sulla base dei dati inseriti all'interno degli archivi nazionali aggiornati dal 2005 al 28-05-2020. Se un risultato non compare nelle graduatorie, quindi, è segno che lo stesso, con ogni probabilità, non è stato ancora inserito. Il processo di inserimento è di competenza dei Comitati Regionali sul cui territorio ha avuto luogo la manifestazione: eventuali segnalazioni per errori od omissioni, vanno dunque indirizzate agli stessi (potete utilizzare l'elenco con relativi contatti). Considerato però che solo le principali manifestazioni nazionali sono oggetto di inserimenti "in diretta" (sul posto di gara), mentre le altre, incluse le internazionali in programma all'estero, vengono inserite in tempi successivi, è opportuno attendere un ragionevole lasso di tempo prima di procedere ad una segnalazione.

Stickers


Non ventosi

GaraTipoPrestazioneVentoAnnoCittà
50 metriIndoor 7.942013Padova
50 metriPista 8.12011Voltabarozzo
60 pianiPista 9.492012Abano Terme
60 pianiIndoor 9.42013Padova
80 pianiPista 12.22014Curtarolo
200 metriIndoor 28.702019Padova
300 pianiPista 44.62015Padova
600 metriPista 1:40.972015Trento
600 metriIndoor 1:41.962015Padova
800 metriPista 2:12.462018Rubiera
800 metriIndoor 2:14.482019Padova
1000 metriIndoor 3:02.362017Ancona
1000 metriPista 3:04.832017Vicenza
1500 metriIndoor 4:30.222019Ancona
1500 metriPista 4:33.832018Agropoli
2000 metriPista 7:02.872015Trento
1200 siepi H 76 S.R.Pista 3:57.02015Padova
60 Hs H 60Pista 10.72013Padova
60 Hs H 60Indoor 11.82013Padova
Salto in alto/HJIndoor 1.202013Padova
Salto in alto/HJPista 1.202013Borgoricco
Salto in lungo/LJIndoor 3.912013Padova
Salto in lungo/LJPista 3.882014Padova
Peso/SP Kg 2.000Pista 7.162012San Martino Di Lupari
VortexPista 30.452013Bovolone
TRIATHLONPista 15442012San Martino Di Lupari
TETRATHLONPista 26522013Padova

AnnoTipo mov.CategoriaSocietà
2020RinnovoPromesse FemminileG.S. FIAMME ORO PADOVA
2019RinnovoJuniores FemminileG.S. FIAMME ORO PADOVA
2018RinnovoJuniores FemminileG.S. FIAMME ORO PADOVA
2017RinnovoAllieveG.S. FIAMME ORO PADOVA
2016RinnovoAllieveG.S. FIAMME ORO PADOVA
2015RinnovoCadetteG.S. FIAMME ORO PADOVA
2014RinnovoCadetteG.S. FIAMME ORO PADOVA
2013RinnovoRagazzi FemminileG.S. FIAMME ORO PADOVA
2012RinnovoRagazzi FemminileG.S. FIAMME ORO PADOVA
2011RinnovoEsordienti FemminileG.S. FIAMME ORO PADOVA
2010NuovoEsordienti FemminileG.S. FIAMME ORO PADOVA
AnnoInizioFineTipoDenominazione
201901-0303-03NazionaleINCONTRO INTERNAZIONALE INDOOR U20 - ANCONA